Spokane Fairchild, WA
on Wednesday, December 5, 2012

Wednesday
Previous Day Next Day
Daily Summary
 ActualAverage (KGEG)Record (KGEG)
Temperature
Mean Temperature °F 29°F  
Max Temperature 46°F 34°F 53°F (1944)
Min Temperature 32°F 24°F 0°F (1919)
Degree Days
Heating Degree Days 26 36  
Month to date heating degree days 178  
Since 1 July heating degree days 1845  
Cooling Degree Days 0 0  
Month to date cooling degree days 0  
Year to date cooling degree days 450  
Moisture
Dew Point 37°F   
Average Humidity 90    
Maximum Humidity 100    
Minimum Humidity 61    
Precipitation
Precipitation 0.01 in 0.08 in 0.75 in (2003)
Month to date precipitation 0.42  
Year to date precipitation 14.68  
Snow
Snow 0.00 in 0.40 in 3.80 in (2001)
Month to date snowfall 2.0  
Since 1 July snowfall 9.5  
Snow Depth in   
Wind
Wind Speed 18 mph   
Max Wind Speed 26 mph   
Max Gust Speed 33 mph   
Visibility 10 miles   
Events Rain , Snow   

Key: T is trace of precipitation, MM is missing value
Source: NWS Daily Summary
Time(PST)TemperatureDew PointHumidity Pressure Visibility Wind DirectionWind SpeedGust SpeedPrecipitationEvents Conditions
12:13 AM 46.4°F 46.4°F 100% 29.69 in 10.0 miles SSW 18.4 mph 26.5 mph N/A Rain Light Rain
12:27 AM 46.4°F 46.4°F 100% 29.69 in 10.0 miles SSW 19.6 mph 26.5 mph N/A   Mostly Cloudy
12:30 AM 46.4°F 46.4°F 100% 29.69 in 10.0 miles SSW 19.6 mph 25.3 mph N/A Rain Light Rain
12:40 AM 46.4°F 46.4°F 100% 29.69 in 10.0 miles SSW 19.6 mph 26.5 mph N/A Rain Light Rain
12:45 AM 46.4°F 46.4°F 100% 29.69 in 10.0 miles SSW 19.6 mph 29.9 mph N/A Rain Light Rain
12:51 AM 46.4°F 46.4°F 100% 29.69 in 10.0 miles SSW 19.6 mph 29.9 mph N/A Rain Light Rain
12:56 AM 46.4°F 46.4°F 100% 29.70 in 10.0 miles SW 23.0 mph 31.1 mph N/A Rain Light Rain
12:58 AM 46.8°F 46.8°F 100% 29.69 in 10.0 miles SW 21.9 mph 31.1 mph 0.01 in Rain Light Rain
1:08 AM 46.4°F 46.4°F 100% 29.70 in 10.0 miles SW 20.7 mph 26.5 mph N/A Rain Light Rain
1:48 AM 46.4°F 46.4°F 100% 29.70 in 10.0 miles SW 20.7 mph 31.1 mph N/A Rain Light Rain
1:58 AM 46.9°F 46.9°F 100% 29.70 in 10.0 miles SW 21.9 mph 32.2 mph 0.00 in Rain Light Rain
2:08 AM 46.4°F 46.4°F 100% 29.72 in 10.0 miles SW 24.2 mph 33.4 mph N/A Rain Light Rain
2:31 AM 46.4°F 46.4°F 100% 29.73 in 10.0 miles SW 19.6 mph 27.6 mph N/A   Mostly Cloudy
2:36 AM 46.4°F 46.4°F 100% 29.73 in 10.0 miles SW 18.4 mph 27.6 mph N/A   Mostly Cloudy
2:41 AM 46.4°F 46.4°F 100% 29.73 in 10.0 miles SW 18.4 mph 27.6 mph N/A   Overcast
2:47 AM 46.4°F 46.4°F 100% 29.73 in 10.0 miles SW 18.4 mph 27.6 mph N/A Rain Light Rain
2:58 AM 46.0°F 46.0°F 100% 29.74 in 10.0 miles SW 24.2 mph 28.8 mph 0.00 in Rain Light Rain
2:59 AM 46.4°F 46.4°F 100% 29.73 in 10.0 miles SW 25.3 mph 28.8 mph N/A   Overcast
3:00 AM 46.4°F 46.4°F 100% 29.74 in 10.0 miles SW 26.5 mph 28.8 mph N/A Rain Light Rain
3:17 AM 44.6°F 44.6°F 100% 29.75 in 10.0 miles WSW 23.0 mph 28.8 mph N/A   Overcast
3:22 AM 44.6°F 44.6°F 100% 29.75 in 10.0 miles WSW 20.7 mph 25.3 mph N/A   Overcast
3:23 AM 44.6°F 44.6°F 100% 29.75 in 10.0 miles WSW 21.9 mph 25.3 mph N/A Rain Light Rain
3:29 AM 44.6°F 44.6°F 100% 29.75 in 10.0 miles WSW 21.9 mph - N/A   Overcast
3:54 AM 42.8°F 42.8°F 100% 29.76 in 10.0 miles WSW 19.6 mph 27.6 mph N/A   Overcast
3:58 AM 42.8°F 42.8°F 100% 29.79 in 10.0 miles SW 17.3 mph - 0.00 in   Overcast
4:08 AM 41.0°F 41.0°F 100% 29.77 in 10.0 miles SW 17.3 mph - N/A   Mostly Cloudy
4:13 AM 41.0°F 41.0°F 100% 29.77 in 10.0 miles SW 18.4 mph - N/A   Mostly Cloudy
4:58 AM 39.0°F 39.0°F 100% 29.85 in 10.0 miles SW 13.8 mph - N/A   Clear
6:58 AM 35.8°F 32.5°F 88% 29.94 in 10.0 miles WSW 18.4 mph 29.9 mph 0.00 in Snow Light Snow
7:17 AM 33.8°F 33.8°F 100% 29.91 in 10.0 miles WSW 15.0 mph - N/A   Clear
7:48 AM 33.8°F 32.0°F 93% 29.92 in 10.0 miles SW 15.0 mph - N/A   Clear
7:58 AM 34.3°F 31.5°F 89% 29.98 in 10.0 miles WSW 13.8 mph - 0.00 in   Clear
8:14 AM 35.6°F 32.0°F 87% 29.95 in 10.0 miles WSW 19.6 mph 24.2 mph N/A   Clear
8:17 AM 35.6°F 32.0°F 87% 29.95 in 10.0 miles WSW 20.7 mph 24.2 mph N/A   Clear
8:26 AM 35.6°F 32.0°F 87% 29.95 in 10.0 miles SW 17.3 mph 26.5 mph N/A   Clear
8:58 AM 36.1°F 30.4°F 80% 30.03 in 10.0 miles WSW 15.0 mph - 0.00 in   Clear
9:07 AM 35.6°F 32.0°F 87% 29.99 in 10.0 miles WSW 15.0 mph - N/A   Clear
9:58 AM 37.9°F 32.0°F 79% 30.06 in 10.0 miles WSW 19.6 mph 27.6 mph 0.00 in   Clear
10:02 AM 39.2°F 32.0°F 75% 30.02 in 10.0 miles WSW 20.7 mph - N/A   Clear
10:11 AM 39.2°F 32.0°F 75% 30.03 in 10.0 miles WSW 20.7 mph - N/A   Clear
10:16 AM 39.2°F 32.0°F 75% 30.03 in 10.0 miles WSW 21.9 mph - N/A   Clear
10:58 AM 39.6°F 32.5°F 76% 30.08 in 10.0 miles WSW 19.6 mph - 0.00 in   Clear
11:24 AM 41.0°F 32.0°F 70% 30.04 in 10.0 miles WSW 18.4 mph - N/A   Clear
11:35 AM 41.0°F 30.2°F 65% 30.05 in 10.0 miles WSW 23.0 mph - N/A   Clear
11:50 AM 41.0°F 28.4°F 61% 30.05 in 10.0 miles WSW 20.7 mph - N/A   Clear
11:58 AM 41.0°F 29.1°F 63% 30.09 in 10.0 miles WSW 23.0 mph - 0.00 in   Clear
12:05 PM 41.0°F 30.2°F 65% 30.05 in 10.0 miles WSW 19.6 mph - N/A   Clear
12:11 PM 41.0°F 28.4°F 61% 30.05 in 10.0 miles WSW 18.4 mph 27.6 mph N/A   Clear
12:58 PM 41.2°F 30.4°F 65% 30.10 in 10.0 miles WSW 20.7 mph - 0.00 in   Clear
1:58 PM 40.1°F 30.6°F 69% 30.10 in 10.0 miles WSW 17.3 mph - N/A   Partly Cloudy
2:58 PM 38.7°F 31.3°F 75% 30.12 in 10.0 miles SW 13.8 mph - N/A   Overcast
3:28 PM 37.4°F 32.0°F 81% 30.08 in 10.0 miles WSW 10.4 mph - N/A   Overcast
3:42 PM 37.4°F 32.0°F 81% 30.09 in 10.0 miles SW 9.2 mph - N/A   Overcast
3:58 PM 37.4°F 32.4°F 82% 30.15 in 10.0 miles SW 10.4 mph - 0.00 in   Overcast
4:58 PM 36.0°F 31.3°F 83% 30.18 in 10.0 miles SW 8.1 mph - N/A   Overcast
5:34 PM 35.6°F 32.0°F 87% 30.12 in 10.0 miles SW 9.2 mph - N/A   Overcast
5:44 PM 35.6°F 32.0°F 87% 30.12 in 10.0 miles SW 8.1 mph - N/A   Overcast
5:58 PM 35.2°F 32.5°F 90% 30.19 in 10.0 miles SW 8.1 mph - 0.00 in   Mostly Cloudy
6:51 PM 33.8°F 32.0°F 93% 30.13 in 10.0 miles SW 9.2 mph - N/A   Mostly Cloudy
6:58 PM 34.5°F 32.7°F 93% 30.20 in 10.0 miles SSW 8.1 mph - 0.00 in   Mostly Cloudy
7:06 PM 33.8°F 32.0°F 93% 30.13 in 10.0 miles South 8.1 mph - N/A   Mostly Cloudy
7:58 PM 33.6°F 33.3°F 99% 30.20 in 10.0 miles South 8.1 mph - 0.00 in   Clear
8:58 PM 32.9°F 32.9°F 100% 30.18 in 10.0 miles South 6.9 mph - N/A   Clear
9:58 PM 32.7°F 32.7°F 100% 30.18 in 10.0 miles SSW 8.1 mph - N/A   Clear
10:58 PM 32.5°F 32.5°F 100% 30.19 in 10.0 miles South 10.4 mph - N/A   Clear
11:02 PM 32.0°F 32.0°F 100% 30.12 in 10.0 miles South 9.2 mph - N/A   Clear
11:14 PM 32.0°F 32.0°F 100% 30.12 in 10.0 miles South 9.2 mph - N/A   Clear
11:58 PM 32.4°F 32.4°F 100% 30.17 in 10.0 miles South 8.1 mph - 0.00 in   Clear
Moon Phase
Dec. 05 Dec. 06 Dec. 13 Dec. 20 Dec. 28
Sunrise:07:23 AM (PST) Moon Rise:11:16 PM (PST)12/5
Sunset:03:59 PM (PST) Moon Set:11:29 AM (PST)12/5

Copyright © 2014 The Weather Underground, Inc.